Flag for Canada Weather past 2 weeks in Rainy River, Ontario, Canada

Now
56 °F

Clear.


Feels Like: 55 °F
Forecast: 52 / 75 °F
Wind: 6 mph from Southwest

Location: Baudette International Airport

Current Time: Sep 3, 2014 at 12:50:08 AM

Latest Report: Sep 2, 2014 at 11:53 PM


Visibility: 10 mi

Pressure: 29.74 "Hg

Humidity: 87%

Dew point: 52 °F

Location of Rainy RiverLocation

Historic Weather in Rainy River — Graph

°F

Rainy River temperature yesterday

Maximum temperature yesterday: 72 °F (at 3:53 PM)
Minimum temperature yesterday: 47 °F (at 6:53 AM)
Average temperature yesterday: 59 °F

Past Weeks' High & Low Weather Summary

 TemperatureHumidityPressure
High81 °F (Aug 24, 4:53 PM)100% (Aug 18, 11:00 PM)30.21 "Hg (Aug 18, 11:00 PM)
Low45 °F (Aug 27, 12:53 AM)41% (Sep 2, 2:53 PM)29.54 "Hg (Aug 31, 4:53 PM)
Average63 °F83%29.87 "Hg
* Reported Aug 18 10:04 PM — Sep 2 10:53 PM, Rainy River, Weather by CustomWeather, © 2014

Note: Actual official high and low records may vary slightly from our data, if they occured in-between our weather recording intervals... More about our weather records

Advertising

Rainy River weather history for previous 24 hours

 ConditionsComfort  
Time TempWeatherWind HumidityBarometerVisibility
10:53 PM
Sep 2
55 °FPassing clouds.7 mph90%29.72 "Hg10 mi
9:53 PM57 °FPassing clouds.8 mph87%29.71 "Hg10 mi
8:53 PM57 °FLight rain. More clouds than sun.12 mph87%29.71 "Hg10 mi
7:53 PM56 °FBroken clouds.5 mph90%29.74 "Hg10 mi
6:53 PM65 °FLight rain. Cloudy.12 mph70%29.75 "Hg10 mi
5:53 PM68 °FSunny.5 mph63%29.73 "Hg10 mi
4:53 PM71 °FSunny.10 mph47%29.72 "Hg10 mi
3:53 PM72 °FSunny.7 mph43%29.73 "Hg10 mi
2:53 PM71 °FOvercast.6 mph41%29.75 "Hg10 mi
1:53 PM69 °FOvercast.6 mph51%29.77 "Hg10 mi
12:53 PM68 °FScattered clouds.3 mph55%29.77 "Hg10 mi
11:53 AM68 °FSunny.7 mph55%29.78 "Hg10 mi
10:53 AM64 °FSunny.7 mph68%29.78 "Hg10 mi
9:53 AM60 °FSunny.5 mph78%29.77 "Hg10 mi
8:53 AM56 °FSunny.6 mph84%29.77 "Hg10 mi
7:53 AM51 °FSunny.No wind92%29.76 "Hg10 mi
6:53 AM47 °FPassing clouds.5 mph97%29.76 "Hg10 mi
5:53 AM48 °FClear.5 mph93%29.76 "Hg10 mi
4:53 AM51 °FClear.No wind89%29.75 "Hg10 mi
3:53 AM51 °FClear.3 mph92%29.73 "Hg10 mi
2:53 AM52 °FClear.5 mph93%29.73 "Hg10 mi
1:53 AM54 °FClear.3 mph90%29.72 "Hg10 mi
12:53 AM54 °FClear.7 mph90%29.73 "Hg10 mi
Weather by CustomWeather, © 2014

See weather overviewHow to use our weather pages